Regional Weather Roundup
Issued by NWS

Home | Current Version | Previous Version | Graphics & Text | Print | Product List | Glossary On
Versions: 1 2 3 4 5 6 7 8 9 10 11 12 13 14 15 16 17 18 19 20 21 22 23 24 25 26 27 28 29 30 31 32 33 34 35 36 37 38 39 40 41 42 43 44 45 46 47 48 49 50
700
ASUS43 KIND 241459
RWRIN

WEATHER ROUNDUP FOR INDIANA
NATIONAL WEATHER SERVICE INDIANAPOLIS IN
1000 AM EST FRI FEB 24 2017

NOTE: "FAIR" INDICATES FEW OR NO CLOUDS BELOW 12,000 FEET WITH NO
SIGNIFICANT WEATHER AND/OR OBSTRUCTIONS TO VISIBILITY.

* - STATION DOES NOT REPORT WEATHER SUCH AS PRECIPITATION OR FOG.

+ - STATION NOT QUALITY CONTROLLED BY THE NATIONAL WEATHER SERVICE.
    USE DATA WITH CAUTION...ESPECIALLY DEWPOINT AND RELATIVE
    HUMIDITY OBSERVATIONS.

INZ001>003-010>013-019-020-241600-
NORTHWEST INDIANA

CITY           SKY/WX    TMP DP  RH WIND       PRES   REMARKS
GARY /AIRPORT/ CLOUDY    43  43 100 N6        29.49S FOG
KNOX *+        SUNNY     61  39  44 SW17      29.48F
MICHIGAN CITY+ CLOUDY    50  50 100 N5        29.48S
RENSSELAER +   MOSUNNY   63  57  82 S16G25    29.48S

$$

LMZ046-743>745-241600-
SOUTHERN LAKE MICHIGAN

STATION/POSITION TIME  TEMP    WIND        PRES    WAVE
                       AIR SEA DIR/SP/G            HT
                 (UTC) (F)     (DEG/KT/KT) (MB)    (FT)
BURNS HARBOR     1440   38     260/  6/  7  999.3S
MICHIGAN CITY    1430          220/  6/  7   N/A

$$

INZ004-005-014>016-021>024-241600-
NORTH CENTRAL INDIANA

CITY           SKY/WX    TMP DP  RH WIND       PRES   REMARKS
ELKHART        MOSUNNY   59  54  82 S7        29.50R
GOSHEN         MOSUNNY   62  54  74 S17       29.50R
SOUTH BEND     SUNNY     61  56  83 S17       29.48S

$$

INZ006>009-017-018-025>027-241600-
NORTHEAST INDIANA

CITY           SKY/WX    TMP DP  RH WIND       PRES   REMARKS
ANGOLA *+      SUNNY     55  55 100 S10       29.52F
FORT WAYNE     MOSUNNY   64  56  75 S23G31    29.53F
KENDALLVILLE + MOSUNNY   58  55  90 S12       29.53F

$$

INZ028-029-035-036-043>045-051>053-241600-
WEST CENTRAL INDIANA

CITY           SKY/WX    TMP DP  RH WIND       PRES   REMARKS
LAFAYETTE      MOSUNNY   65  56  72 S14G29    29.50F
TERRE HAUTE    PTSUNNY   65  55  70 S20G29    29.54F

$$

INZ030>032-037>040-046>048-054>057-064-065-241600-
CENTRAL INDIANA

CITY           SKY/WX    TMP DP  RH WIND       PRES   REMARKS
COLUMBUS       SUNNY     64  59  82 S18       29.63F
GREENWOOD *+   SUNNY     66  58  74 S12G20    29.60F
INDIANAPOLIS   PTSUNNY   66  55  67 S17G28    29.57F
-EAGLE CREEK   SUNNY     67  55  65 S12G20    29.56F
KOKOMO +       SUNNY     64  57  78 S18       29.54F
MT COMFORT *+  SUNNY     64  55  72 S17G26    29.59F
SHELBYVILLE    SUNNY     66  55  67 S21G30    29.60F

$$

INZ033-034-041-042-049-050-058-059-241600-
EAST CENTRAL INDIANA

CITY           SKY/WX    TMP DP  RH WIND       PRES   REMARKS
MUNCIE         MOSUNNY   66  55  67 S17G30    29.58F

$$

INZ060-061-067>069-081>083-085>088-241600-
SOUTHWEST INDIANA

CITY           SKY/WX    TMP DP  RH WIND       PRES   REMARKS
EVANSVILLE     MOSUNNY   68  55  63 S18G29    29.62S
HUNTINGBURG *+ MOSUNNY   66  57  72 S21G28    29.63F

$$

INZ062-063-066-070>080-084-089>092-241600-
SOUTH CENTRAL AND SOUTHEAST INDIANA

CITY           SKY/WX    TMP DP  RH WIND       PRES   REMARKS
BLOOMINGTON    CLOUDY    68  53  58 S16G26    29.59F
MADISON *+     PTSUNNY   66  54  63 S20       29.70F
SEYMOUR +      MOSUNNY   68  57  68 S15G24    29.64F

$$





USA.gov is the U.S. government's official web portal to all federal, state and local government web resources and services.